Location: Newark
(27.2452°N, 107.0032°W)
Time: 23:31:15
(UTC+00:00)

Hubble Space Telescope - Pass Details

Date: 23 December 2019
Orbit: 536 x 540 km, 28.5° (Epoch: 23 January)

Event Time Altitude Azimuth Distance (km) Brightness Sun altitude
Exits shadow 11:41:57 35° 101° (E) 864 2.3 -28.5°
Drops below altitude 10° 11:44:27 10° 101° (E) 1,783 4.4 -28.0°
Sets 11:46:42 0° 101° (E) 2,674 5.6 -27.5°
